Atmospheric History
02/08/2018 18:25  to  2/9/2018 18:25
Change End Date:
To complete the export process:
1) Select all of the data below
2) Copy the data to the clipboard
3) Open a word processor such as Notepad
4) Paste the data into the word processor
5) Save the file

Date/Time (MDT), AirTemp, RH, Dewpoint ,AvgWindSpeed, GustWindSpeed, WindDirection, PrecipType, PrecipIntensity, PrecipAccumulation, PrecipRate
02/09/2018 18:19, -2, 71, -9 ,9, 15, W, None, None, ,  
02/09/2018 18:18, -1, 72, -8 ,11, 15, W, None, None, ,  
02/09/2018 18:08, -2, 72, -9 ,13, 15, W, None, None, ,  
02/09/2018 18:04, -2, 72, -9 ,11, 15, W, None, None, ,  
02/09/2018 17:57, -2, 73, -9 ,11, 13, W, None, None, ,  
02/09/2018 17:49, -2, 75, -8 ,10, 14, W, None, None, ,  
02/09/2018 17:47, -2, 75, -8 ,11, 14, W, None, None, ,  
02/09/2018 17:37, -3, 74, -9 ,12, 14, W, None, None, ,  
02/09/2018 17:34, -3, 74, -9 ,12, 14, W, None, None, ,  
02/09/2018 17:27, -3, 75, -9 ,12, 16, W, None, None, ,  
02/09/2018 17:19, -3, 76, -9 ,11, 13, W, None, None, ,  
02/09/2018 17:17, -3, 76, -9 ,11, 13, W, None, None, ,  
02/09/2018 17:07, -3, 77, -8 ,11, 12, W, None, None, ,  
02/09/2018 17:04, -3, 78, -8 ,9, 11, W, None, None, ,  
02/09/2018 16:57, -3, 79, -8 ,9, 10, W, None, None, ,  
02/09/2018 16:49, -3, 78, -8 ,9, 10, W, None, None, ,  
02/09/2018 16:47, -3, 77, -9 ,9, 12, W, None, None, ,  
02/09/2018 16:37, -1, 76, -6 ,9, 12, W, None, None, ,  
02/09/2018 16:34, 0, 77, -6 ,10, 12, W, None, None, ,  
02/09/2018 16:27, -1, 76, -7 ,7, 10, W, None, None, ,  
02/09/2018 16:19, 0, 76, -6 ,9, 12, W, None, None, ,  
02/09/2018 16:17, 0, 76, -6 ,9, 12, W, None, None, ,  
02/09/2018 16:07, 0, 75, -6 ,7, 11, NW, None, None, ,  
02/09/2018 16:04, 0, 75, -6 ,8, 11, W, None, None, ,  
02/09/2018 15:57, 0, 74, -6 ,8, 11, W, None, None, ,  
02/09/2018 15:49, 0, 74, -6 ,7, 9, W, None, None, ,  
02/09/2018 15:47, 0, 75, -6 ,7, 9, W, None, None, ,  
02/09/2018 15:37, 0, 75, -6 ,7, 9, W, None, None, ,  
02/09/2018 15:34, 0, 75, -6 ,9, 9, W, None, None, ,  
02/09/2018 15:27, 0, 75, -6 ,9, 10, W, None, None, ,  
02/09/2018 15:19, 0, 75, -6 ,9, 10, W, None, None, ,  
02/09/2018 15:17, 0, 75, -6 ,9, 11, W, None, None, ,  
02/09/2018 15:06, 1, 75, -5 ,10, 12, W, None, None, ,  
02/09/2018 15:04, 1, 75, -5 ,10, 11, W, None, None, ,  
02/09/2018 14:56, 1, 74, -5 ,9, 11, W, None, None, ,  
02/09/2018 14:49, 1, 74, -5 ,8, 10, NW, None, None, ,  
02/09/2018 14:46, 1, 74, -5 ,7, 9, NW, None, None, ,  
02/09/2018 14:36, 1, 74, -5 ,6, 9, W, None, None, ,  
02/09/2018 14:34, 1, 74, -5 ,7, 10, W, None, None, ,  
02/09/2018 14:26, 1, 74, -5 ,8, 10, W, None, None, ,  
02/09/2018 14:19, 2, 73, -5 ,9, 10, W, None, None, ,  
02/09/2018 14:16, 2, 73, -5 ,7, 9, W, None, None, ,  
02/09/2018 14:06, 2, 73, -5 ,6, 9, W, None, None, ,  
02/09/2018 14:04, 2, 73, -5 ,6, 9, NW, None, None, ,  
02/09/2018 13:56, 2, 74, -5 ,7, 11, W, None, None, ,  
02/09/2018 13:49, 2, 74, -5 ,7, 9, W, None, None, ,  
02/09/2018 13:46, 2, 75, -5 ,8, 9, W, None, None, ,  
02/09/2018 13:36, 2, 74, -5 ,8, 10, W, None, None, ,  
02/09/2018 13:34, 2, 74, -5 ,9, 10, W, None, None, ,  
02/09/2018 13:26, 2, 73, -4 ,7, 9, W, None, None, ,  
02/09/2018 13:19, 2, 72, -4 ,6, 6, W, None, None, ,  
02/09/2018 13:16, 3, 73, -4 ,4, 7, W, None, None, ,  
02/09/2018 13:06, 2, 74, -4 ,6, 8, W, None, None, ,  
02/09/2018 13:04, 2, 74, -4 ,6, 8, W, None, None, ,  
02/09/2018 12:56, 2, 74, -4 ,6, 8, W, None, None, ,  
02/09/2018 12:49, 2, 75, -4 ,6, 9, W, None, None, ,  
02/09/2018 12:46, 2, 74, -4 ,7, 9, W, Yes, , ,  
02/09/2018 12:36, 2, 74, -4 ,6, 9, W, Yes, , ,  
02/09/2018 12:34, 2, 74, -4 ,7, 9, W, None, None, ,  
02/09/2018 12:25, 2, 75, -4 ,7, 9, W, None, None, ,  
02/09/2018 12:19, 2, 74, -4 ,7, 9, W, None, None, ,  
02/09/2018 12:15, 3, 73, -4 ,7, 8, W, Yes, , ,  
02/09/2018 12:05, 4, 71, -3 ,3, 5, NW, Yes, , ,  
02/09/2018 12:04, 4, 73, -3 ,2, 6, NW, Yes, , ,  
02/09/2018 11:55, 3, 73, -3 ,4, 6, NW, Yes, , ,  
02/09/2018 11:49, 2, 72, -4 ,4, 6, NW, Yes, , ,  
02/09/2018 11:45, 2, 71, -5 ,4, 7, NW, None, None, ,  
02/09/2018 11:35, 3, 71, -5 ,6, 6, NW, None, None, ,  
02/09/2018 11:34, 3, 70, -5 ,5, 6, N, None, None, ,  
02/09/2018 11:25, 2, 72, -4 ,5, 6, NW, Yes, , ,  
02/09/2018 11:19, 2, 71, -5 ,5, 7, N, None, None, ,  
02/09/2018 11:15, 2, 71, -5 ,4, 7, NW, None, None, ,  
02/09/2018 11:05, 2, 70, -5 ,4, 7, NW, None, None, ,  
02/09/2018 11:04, 2, 70, -5 ,3, 7, N, None, None, ,  
02/09/2018 10:55, 2, 73, -5 ,4, 6, NW, None, None, ,  
02/09/2018 10:48, 1, 76, -5 ,4, 8, NW, None, None, ,  
02/09/2018 10:45, 0, 76, -6 ,6, 9, NW, None, None, ,  
02/09/2018 10:35, 0, 77, -6 ,6, 8, N, None, None, ,  
02/09/2018 10:34, 0, 77, -6 ,6, 9, N, None, None, ,  
02/09/2018 10:25, -1, 78, -6 ,7, 9, N, None, None, ,  
02/09/2018 10:19, -1, 78, -6 ,7, 7, N, None, None, ,  
02/09/2018 10:15, -1, 79, -6 ,6, 7, N, None, None, ,  
02/09/2018 10:05, -1, 80, -6 ,6, 6, N, None, None, ,  
02/09/2018 10:04, -1, 80, -6 ,5, 6, N, None, None, ,  
02/09/2018 09:55, -1, 81, -6 ,4, 6, NW, Yes, , ,  
02/09/2018 09:49, -2, 81, -6 ,4, 4, W, Yes, , ,  
02/09/2018 09:45, -1, 81, -6 ,4, 4, W, None, None, ,  
02/09/2018 09:34, -1, 81, -5 ,2, 4, NW, Yes, , ,  
02/09/2018 09:34, -1, 81, -5 ,2, 3, NW, Yes, , ,  
02/09/2018 09:24, -2, 81, -6 ,3, 4, W, Yes, , ,  
02/09/2018 09:19, -2, 81, -7 ,4, 4, W, Yes, , ,  
02/09/2018 09:14, -2, 81, -7 ,4, 4, W, Yes, , ,  
02/09/2018 09:04, -2, 81, -6 ,1, 2, SW, Yes, , ,  
02/09/2018 09:04, -1, 82, -6 ,1, 2, SW, Yes, , ,  
02/09/2018 08:54, -2, 82, -6 ,1, 2, SW, Yes, , ,  
02/09/2018 08:49, -2, 82, -6 ,1, 1, SW, Yes, , ,  
02/09/2018 08:44, -2, 82, -6 ,0, 1, SW, Yes, , ,  
02/09/2018 08:34, -2, 82, -6 ,1, 1, SW, Yes, , ,  
02/09/2018 08:34, -2, 82, -6 ,1, 1, SW, Yes, , ,  
02/09/2018 08:24, -1, 83, -5 ,0, 1, NW, None, None, ,  
02/09/2018 08:19, -1, 83, -5 ,0, 0, NW, None, None, ,  
02/09/2018 08:14, -1, 83, -5 ,0, 0, NW, None, None, ,  
02/09/2018 08:04, -3, 82, -7 ,0, 1, NW, Yes, , ,  
02/09/2018 08:04, -3, 82, -7 ,0, 1, NW, Yes, , ,  
02/09/2018 07:54, -3, 82, -7 ,1, 1, NW, None, None, ,  
02/09/2018 07:49, -3, 82, -7 ,0, 1, N, None, None, ,  
02/09/2018 07:44, -3, 82, -7 ,1, 1, N, None, None, ,  
02/09/2018 07:34, -3, 82, -7 ,2, 3, N, None, None, ,  
02/09/2018 07:34, -3, 82, -7 ,2, 3, N, None, None, ,  
02/09/2018 07:24, -3, 82, -7 ,3, 4, NE, None, None, ,  
02/09/2018 07:19, -3, 82, -7 ,4, 4, NE, None, None, ,  
02/09/2018 07:14, -3, 82, -7 ,4, 5, NE, None, None, ,  
02/09/2018 07:04, -3, 82, -7 ,4, 6, NE, None, None, ,  
02/09/2018 07:03, -3, 82, -7 ,4, 6, NE, None, None, ,  
02/09/2018 06:53, -3, 82, -7 ,4, 6, NE, None, None, ,  
02/09/2018 06:49, -3, 82, -7 ,4, 6, NE, None, None, ,  
02/09/2018 06:43, -3, 82, -7 ,6, 7, N, None, None, ,  
02/09/2018 06:34, -3, 82, -7 ,7, 8, NE, None, None, ,  
02/09/2018 06:33, -3, 82, -7 ,7, 7, NE, None, None, ,  
02/09/2018 06:23, -3, 82, -7 ,4, 5, N, None, None, ,  
02/09/2018 06:19, -3, 82, -7 ,4, 7, NE, None, None, ,  
02/09/2018 06:13, -3, 82, -7 ,6, 7, NE, None, None, ,  
02/09/2018 06:04, -3, 82, -7 ,6, 7, N, None, None, ,  
02/09/2018 06:03, -3, 82, -7 ,6, 7, N, None, None, ,  
02/09/2018 05:53, -3, 82, -7 ,6, 6, N, None, None, ,  
02/09/2018 05:49, -3, 82, -7 ,4, 6, N, None, None, ,  
02/09/2018 05:43, -3, 82, -7 ,5, 6, N, None, None, ,  
02/09/2018 05:34, -3, 82, -7 ,6, 7, N, None, None, ,  
02/09/2018 05:33, -3, 82, -7 ,6, 7, N, None, None, ,  
02/09/2018 05:23, -3, 82, -7 ,7, 9, N, None, None, ,  
02/09/2018 05:19, -3, 82, -7 ,6, 9, N, None, None, ,  
02/09/2018 05:13, -3, 82, -7 ,7, 9, N, None, None, ,  
02/09/2018 05:04, -3, 82, -7 ,7, 9, N, None, None, ,  
02/09/2018 05:03, -3, 82, -7 ,7, 8, N, None, None, ,  
02/09/2018 04:53, -3, 82, -7 ,6, 7, N, None, None, ,  
02/09/2018 04:49, -3, 82, -7 ,6, 9, N, None, None, ,  
02/09/2018 04:43, -3, 82, -7 ,6, 9, N, None, None, ,  
02/09/2018 04:34, -3, 82, -7 ,7, 9, N, None, None, ,  
02/09/2018 04:33, -3, 82, -7 ,7, 9, N, None, None, ,  
02/09/2018 04:22, -3, 82, -7 ,6, 7, N, None, None, ,  
02/09/2018 04:19, -3, 82, -7 ,7, 8, N, None, None, ,  
02/09/2018 04:12, -3, 82, -7 ,7, 8, NE, None, None, ,  
02/09/2018 04:04, -3, 82, -7 ,7, 9, NE, None, None, ,  
02/09/2018 04:02, -3, 82, -7 ,7, 9, NE, None, None, ,  
02/09/2018 03:52, -3, 82, -7 ,7, 9, NE, None, None, ,  
02/09/2018 03:49, -3, 82, -7 ,7, 7, N, None, None, ,  
02/09/2018 03:42, -3, 82, -7 ,6, 9, N, None, None, ,  
02/09/2018 03:34, -3, 82, -7 ,7, 9, NE, None, None, ,  
02/09/2018 03:32, -3, 82, -7 ,7, 9, NE, None, None, ,  
02/09/2018 03:22, -3, 82, -7 ,7, 9, NE, None, None, ,  
02/09/2018 03:19, -3, 82, -7 ,7, 9, NE, None, None, ,  
02/09/2018 03:12, -4, 82, -8 ,7, 8, NE, None, None, ,  
02/09/2018 03:04, -4, 82, -8 ,7, 7, NE, None, None, ,  
02/09/2018 03:02, -4, 82, -8 ,7, 7, NE, None, None, ,  
02/09/2018 02:52, -4, 82, -8 ,7, 12, NE, None, None, ,  
02/09/2018 02:49, -4, 82, -8 ,6, 13, N, None, None, ,  
02/09/2018 02:42, -4, 83, -8 ,12, 13, N, None, None, ,  
02/09/2018 02:34, -5, 82, -9 ,7, 7, NE, None, None, ,  
02/09/2018 02:32, -5, 82, -9 ,6, 7, NE, None, None, ,  
02/09/2018 02:22, -5, 82, -9 ,4, 6, NE, None, None, ,  
02/09/2018 02:19, -5, 82, -9 ,4, 4, NE, None, None, ,  
02/09/2018 02:12, -6, 82, -10 ,2, 6, N, None, None, ,  
02/09/2018 02:04, -6, 82, -10 ,6, 7, NE, None, None, ,  
02/09/2018 02:02, -5, 82, -10 ,6, 7, NE, None, None, ,  
02/09/2018 01:52, -6, 82, -10 ,6, 6, NE, None, None, ,  
02/09/2018 01:49, -5, 83, -9 ,6, 6, NE, None, None, ,  
02/09/2018 01:41, -6, 82, -10 ,5, 6, NE, None, None, ,  
02/09/2018 01:34, -6, 82, -10 ,4, 4, NE, None, None, ,  
02/09/2018 01:31, -7, 81, -11 ,2, 4, NE, None, None, ,  
02/09/2018 01:21, -6, 83, -10 ,3, 6, NE, None, None, ,  
02/09/2018 01:19, -7, 81, -12 ,2, 6, SE, None, None, ,  
02/09/2018 01:11, -6, 80, -11 ,5, 6, NE, None, None, ,  
02/09/2018 01:04, -5, 83, -8 ,2, 7, N, None, None, ,  
02/09/2018 01:01, -5, 83, -9 ,5, 7, N, None, None, ,  
02/09/2018 00:51, -5, 82, -9 ,6, 12, N, None, None, ,  
02/09/2018 00:49, -4, 82, -8 ,7, 12, N, None, None, ,  
02/09/2018 00:41, -4, 83, -8 ,12, 12, NE, None, None, ,  
02/09/2018 00:34, -4, 82, -8 ,11, 12, NE, None, None, ,  
02/09/2018 00:31, -4, 83, -8 ,11, 13, N, None, None, ,  
02/09/2018 00:21, -4, 82, -8 ,12, 14, N, None, None, ,  
02/09/2018 00:19, -4, 82, -8 ,12, 14, N, None, None, ,  
02/09/2018 00:11, -3, 82, -7 ,14, 14, N, None, None, ,  
02/09/2018 00:04, -2, 82, -6 ,13, 15, N, None, None, ,  
02/09/2018 00:01, -2, 82, -6 ,14, 15, N, None, None, ,  
02/08/2018 23:51, -1, 83, -5 ,14, 15, N, None, None, ,  
02/08/2018 23:49, -1, 83, -5 ,14, 15, N, None, None, ,  
02/08/2018 23:41, -1, 83, -5 ,13, 14, N, None, None, ,  
02/08/2018 23:34, -1, 84, -5 ,11, 11, N, None, None, ,  
02/08/2018 23:31, -1, 84, -4 ,10, 11, N, None, None, ,  
02/08/2018 23:21, 0, 83, -4 ,8, 8, N, None, None, ,  
02/08/2018 23:19, 0, 83, -4 ,8, 9, N, None, None, ,  
02/08/2018 23:11, 1, 83, -3 ,7, 9, N, None, None, ,  
02/08/2018 23:04, 1, 83, -3 ,7, 8, N, None, None, ,  
02/08/2018 23:00, 1, 83, -3 ,7, 8, N, None, None, ,  
02/08/2018 22:50, 1, 83, -3 ,7, 11, N, None, None, ,  
02/08/2018 22:49, 1, 83, -3 ,8, 11, N, None, None, ,  
02/08/2018 22:40, 1, 83, -3 ,9, 11, N, None, None, ,  
02/08/2018 22:34, 1, 83, -3 ,10, 13, N, None, None, ,  
02/08/2018 22:30, 1, 83, -3 ,11, 13, N, None, None, ,  
02/08/2018 22:20, 1, 83, -3 ,12, 14, N, None, None, ,  
02/08/2018 22:19, 1, 83, -3 ,13, 14, N, None, None, ,  
02/08/2018 22:10, 1, 83, -3 ,11, 12, N, None, None, ,  
02/08/2018 22:04, 1, 83, -3 ,11, 12, N, None, None, ,  
02/08/2018 22:00, 1, 83, -3 ,9, 11, N, None, None, ,  
02/08/2018 21:50, 1, 83, -3 ,9, 10, N, None, None, ,  
02/08/2018 21:49, 1, 83, -3 ,9, 9, N, None, None, ,  
02/08/2018 21:40, 1, 83, -3 ,8, 10, N, None, None, ,  
02/08/2018 21:34, 1, 83, -2 ,9, 11, N, None, None, ,  
02/08/2018 21:30, 2, 83, -2 ,9, 12, N, Yes, , ,  
02/08/2018 21:20, 2, 83, -2 ,11, 14, N, None, None, ,  
02/08/2018 21:19, 2, 83, -2 ,10, 14, N, None, None, ,  
02/08/2018 21:10, 2, 83, -2 ,12, 16, N, None, None, ,  
02/08/2018 21:04, 2, 83, -2 ,14, 16, N, None, None, ,  
02/08/2018 21:00, 2, 83, -2 ,13, 15, N, None, None, ,  
02/08/2018 20:50, 2, 82, -2 ,13, 16, N, None, None, ,  
02/08/2018 20:49, 2, 82, -2 ,14, 16, N, None, None, ,  
02/08/2018 20:40, 2, 82, -2 ,12, 16, N, None, None, ,  
02/08/2018 20:34, 2, 83, -2 ,14, 16, N, Yes, , ,  
02/08/2018 20:30, 2, 83, -2 ,12, 17, N, None, None, ,  
02/08/2018 20:19, 2, 83, -2 ,16, 19, N, None, None, ,  
02/08/2018 20:19, 2, 83, -2 ,16, 19, N, None, None, ,  
02/08/2018 20:09, 2, 83, -2 ,16, 19, N, Yes, , ,  
02/08/2018 20:04, 2, 83, -2 ,15, 19, N, None, None, ,  
02/08/2018 19:59, 2, 83, -2 ,17, 20, N, None, None, ,  
02/08/2018 19:49, 2, 83, -2 ,17, 20, N, Yes, , ,  
02/08/2018 19:49, 2, 83, -2 ,17, 20, N, Yes, , ,  
02/08/2018 19:39, 2, 83, -2 ,17, 20, N, Yes, , ,  
02/08/2018 19:34, 2, 83, -2 ,17, 21, N, Yes, , ,  
02/08/2018 19:29, 2, 83, -2 ,18, 22, N, None, None, ,  
02/08/2018 19:19, 2, 83, -2 ,19, 22, N, None, None, ,  
02/08/2018 19:19, 2, 83, -2 ,19, 21, N, None, None, ,  
02/08/2018 19:09, 2, 83, -2 ,19, 23, N, None, None, ,  
02/08/2018 19:04, 2, 83, -1 ,19, 23, N, None, None, ,  
02/08/2018 18:59, 3, 83, -1 ,19, 24, N, None, None, ,  
02/08/2018 18:49, 2, 83, -1 ,22, 26, N, None, None, ,  
02/08/2018 18:49, 2, 83, -1 ,22, 26, N, None, None, ,  
02/08/2018 18:39, 3, 82, -1 ,22, 28, N, None, None, ,  
02/08/2018 18:34, 3, 82, -2 ,24, 29, N, None, None, ,  
02/08/2018 18:29, 3, 82, -1 ,24, 29, N, None, None, ,  
Change End Date:

Copyright © 1998-2015 Vaisala, Inc.
All Rights Reserved
Send comments about the data to:
SCAN Web ® is a registered trademark of Vaisala, Inc.
SCAN Web Version 6.0